Regional Weather Roundup
Issued by NWS Goodland, KS

Home | Current Version | Previous Version | Text Only | Print | Product List | Glossary Off
Versions: 1 2 3 4 5 6 7 8 9 10 11 12 13 14 15 16 17 18 19 20 21 22 23 24 25 26 27 28 29 30 31 32 33 34 35 36 37 38 39 40 41 42 43 44 45 46 47 48 49 50

000
ASUS43 KGLD 270208
RWRGLD

GOODLAND FORECAST AREA HOURLY WEATHER ROUNDUP
NATIONAL WEATHER SERVICE GOODLAND KS
800 PM MDT SAT MAY 26 2018

...OFFICIAL OBSERVATIONS...

CITY           SKY/WX    TMP DP  RH WIND       PRES   REMARKS
GOODLAND KS    PTCLDY    80  43  26 SE18      29.82R
HILL CITY KS   CLOUDY    82  55  39 S9        29.80R
IMPERIAL NEB   MOCLDY    84  44  24 S17       29.79R
MCCOOK NEB     MOCLDY    83  51  33 S13G21    29.78R
AKRON CO       CLOUDY    79  44  28 SE18      29.81R
BURLINGTON CO  MOCLDY    79  42  26 SE17G26   29.84R
LIMON CO       CLOUDY    80  32  17 SE26G38   29.85S
$$

...UNOFFICIAL OBSERVATIONS...

CITY           SKY/WX    TMP DP  RH WIND       PRES   REMARKS
COLBY KS       PTCLDY    81  50  34 SE14      29.84S
NORTON KS      CLEAR     84  52  32 SE9       29.80
KIT CARSON CO    N/A     83  44  25 MISG        N/A
YUMA CO        FAIR      77  43  29 SE13      29.80R
$$




USA.gov is the U.S. government's official web portal to all federal, state and local government web resources and services.